Regional Weather Roundup
Issued by NWS Kansas City/Pleasant Hill, MO

Home | Current Version | Previous Version | Text Only | Print | Product List | Glossary On
Versions: 1 2 3 4 5 6 7 8 9 10 11 12 13 14 15 16 17 18 19 20 21 22 23 24 25 26 27 28 29 30 31 32 33 34 35 36 37 38 39 40 41 42 43 44 45 46 47 48 49 50
000
ASUS43 KEAX 281804
RWREAX

WEATHER ROUNDUP FOR EASTERN KANSAS AND NORTHWEST MISSOURI
NATIONAL WEATHER SERVICE KANSAS CITY/PLEASANT HILL MO
100 PM CDT SAT MAR 28 2015

KSZ040-057-103>105-MOZ028-029-037-043-281900-
...KANSAS CITY METROPOLITAN AREA...

CITY           SKY/WX    TMP DP  RH WIND       PRES   REMARKS
K.C. INTL      CLOUDY    48  31  51 SE12G23   30.17F
6HR MIN TEMP:  36; 6HR MAX TEMP:  48;

K.C. DOWNTOWN  CLOUDY    48  29  47 SE13      30.17F
6HR MIN TEMP:  38; 6HR MAX TEMP:  49;

LEES SUMMIT    CLOUDY    46  29  51 SE15G22   30.18F
6HR MIN TEMP:  36; 6HR MAX TEMP:  47;

OLATHE - IXD   SUNNY     48  30  49 SE14G23   30.16S
6HR MIN TEMP:  37; 6HR MAX TEMP:  48;

OLATHE - OJC   PTSUNNY   47  30  51 E16G24    30.15F
6HR MIN TEMP:  37; 6HR MAX TEMP:  47;

LAWRENCE       SUNNY     51  29  42 E17G23    30.15F

$$

MOZ001>008-011>017-020>025-030>033-038>040-044>046-053-054-281900-
...NORTHERN AND CENTRAL MISSOURI...

CITY           SKY/WX    TMP DP  RH WIND       PRES   REMARKS
ST. JOSEPH     SUNNY     48  30  49 SE10G21   30.18F
6HR MIN TEMP:  35; 6HR MAX TEMP:  48;

MOSBY          PTCLDY    45  32  61 E14       30.20F
WARRENSBURG    CLOUDY    46  32  57 SE9       30.20F
WHITEMAN AFB   SUNNY     45  33  61 S10       30.20F
6HR MIN TEMP:  35; 6HR MAX TEMP:  45; 6HR PCP: TRACE;

CLINTON        PTSUNNY   45  32  61 E16       30.21F
SEDALIA        MOSUNNY   46  31  55 E10       30.22F
6HR MIN TEMP:  35; 6HR MAX TEMP:  47;

WARSAW         NOT AVBL
CHILLICOTHE      N/A     44  30  57 SE14G23   30.25S
6HR MIN TEMP:  33; 6HR MAX TEMP:  44;

MOBERLY        SUNNY     43  23  45 SE13      30.27F
KIRKSVILLE     SUNNY     43  20  39 SE9G18    30.26F
6HR MIN TEMP:  29; 6HR MAX TEMP:  44;


$$

MOZ041-047>049-056>058-063>065-088>090-097-281900-
...EASTERN AND SOUTHERN MISSOURI...

CITY           SKY/WX    TMP DP  RH WIND       PRES   REMARKS
ST. LOUIS INTL SUNNY     40  16  37 VRB3      30.33S
6HR MIN TEMP:  30; 6HR MAX TEMP:  41;

SPIRIT OF STL  SUNNY     43  18  36 VRB5      30.31F
COLUMBIA       MOSUNNY   43  26  51 SE14G20   30.25F
JEFFERSON CITY MOSUNNY   42  27  55 SE12      30.27F
HANNIBAL       SUNNY     45  12  26 E10       30.30S
ROLLA          CLOUDY    40  28  62 E13       30.24F WCI  32
OSAGE BEACH    CLOUDY    41  30  65 SE10      30.24F WCI  35
SPRINGFIELD    CLOUDY    41  27  57 SE20      30.18F WCI  32
BRANSON        CLOUDY    43  32  65 E13       30.20F
NEVADA         SUNNY     50  32  50 E17       30.17R
JOPLIN         SUNNY     55  34  45 E14       30.12S
WEST PLAINS    CLOUDY    33  30  88 SE7       30.27F WCI  27

$$

IAZ060-094-KSZ022-034>040-054-083-096-NEZ052-066-093-281900-
...KANSAS...SOUTHEAST NEBRASKA AND IOWA...

CITY           SKY/WX    TMP DP  RH WIND       PRES   REMARKS
TOPEKA         SUNNY     52  30  43 SE14G21   30.13F
6HR MIN TEMP:  38; 6HR MAX TEMP:  53;

MANHATTAN      SUNNY     56  33  42 E9        30.09F
EMPORIA        SUNNY     55  33  43 SE12      30.08S
CHANUTE        SUNNY     57  38  48 SE9       30.10S
WICHITA        SUNNY     63  39  41 E7        30.04S
OMAHA          MOSUNNY   48  27  44 S15G23    30.15F
LINCOLN        SUNNY     50  30  46 S16       30.13F
FALLS CITY     SUNNY     49  30  48 SE14G23   30.15F
LAMONI         MOSUNNY   43  24  47 SE7       30.21F
DES MOINES     MOSUNNY   46  12  25 S13       30.22F

$$




USA.gov is the U.S. government's official web portal to all federal, state and local government web resources and services.